#timestamp,LO_Frequency,Hit 
1501160415.6,286046997.5,N
1501160435.4,286046995.3,N
1501160455.2,286046993.3,N
1501160475.1,286046993.5,N
1501160476.0,286046993.5,N
1501160495.8,286046995.8,N
1501160515.6,286046995.3,N
1501160535.5,286046995.4,N
1501160555.3,286046995.7,N
1501160575.1,286046995.3,N
1501160595.8,286046997.1,N
1501160615.7,286046997.4,N
1501160635.5,286046999.1,N
1501160655.3,286046996.9,N
1501160675.2,286046996.7,N
1501160695.9,286046996.6,N
1501160715.7,286046997.4,N
1501160735.6,286046997.9,N
1501160755.4,286046997.8,N
1501160775.2,286046996.7,N
1501160795.1,286046997.0,N
1501160796.0,286046997.0,N
1501160815.8,286046997.7,N
1501160835.6,286046997.0,N
1501160855.4,286046997.1,N
1501160875.3,286046995.2,N
1501160895.1,286046995.2,N
1501160915.8,286046995.9,N
1501160935.7,286046993.8,N
1501160955.5,286046995.7,N
1501160975.3,286046995.0,N
1501160995.2,286046997.8,N
1501161015.9,286046997.5,N
1501161035.7,286046994.9,N
1501161055.6,286046995.1,N
1501161075.4,286046995.3,N
1501161095.2,286046995.0,N
1501161115.0,286046995.4,N
1501161116.0,286046995.4,N
1501161135.8,286046998.0,N
1501161155.6,286046997.6,N
1501161175.4,286046997.3,N
1501161195.3,286046997.3,N
1501161215.1,286046998.0,N
1501161235.8,286046995.1,N
1501161255.7,286046995.1,N
1501161275.5,286046993.4,N
1501161295.3,286046994.1,N
1501161315.2,286046993.6,N
1501161335.9,286046994.4,N
1501161355.7,286046994.6,N
1501161375.5,286046994.6,N
1501161395.4,286046994.1,N
1501161415.2,286046994.2,N
1501161435.0,286046996.0,N
1501161435.9,286046996.0,N
1501161455.8,286046993.3,N
1501161475.6,286046993.9,N
1501161495.4,286046991.7,Y
1501161515.3,286046996.9,N
1501161535.2,286046998.3,N
1501161555.0,286047000.7,N
1501161555.9,286047000.7,N
1501161575.7,286046999.2,N
1501161595.6,286046996.5,N
1501161615.4,286046995.4,N
1501161635.2,286046997.7,N
1501161655.1,286046995.7,N
1501161656.0,286046995.7,N
1501161675.8,286046995.3,N
1501161695.6,286046998.0,N
1501161715.5,286046995.3,N
1501161735.3,286046995.3,N
1501161755.1,286046998.0,N
1501161775.9,286046995.8,N
1501161795.7,286046996.4,N
1501161815.5,286046996.0,N
1501161835.3,286046994.6,N
1501161855.2,286046994.7,N
1501161875.0,286046993.7,N
1501161875.9,286046993.7,N
1501161895.7,286046993.8,N
1501161915.6,286046993.0,N
1501161935.4,286046994.7,N
1501161955.2,286046995.5,N
1501161975.1,286046995.5,N
1501161976.0,286046995.5,N
1501161995.8,286046995.7,N
1501162015.6,286046996.1,N
1501162035.5,286046994.0,N
1501162055.3,286046993.4,N
1501162075.1,286046995.8,N
1501162095.8,286046995.9,N
1501162115.7,286046993.7,N
1501162135.5,286046993.5,N
1501162155.3,286046993.4,N
1501162175.2,286046993.8,N
1501162195.9,286046994.5,N
1501162215.7,286046993.4,N
1501162235.6,286046996.3,N
1501162255.4,286046993.9,N
1501162275.2,286046992.2,Y
1501162295.1,286046997.8,N
1501162296.0,286046997.8,N
1501162315.8,286046997.5,N
1501162335.6,286046997.8,N
1501162355.5,286046997.8,N
1501162375.3,286046996.5,N
1501162395.1,286046997.7,N
1501162415.9,286046996.8,N
1501162435.7,286046997.7,N
1501162455.5,286046995.2,N
1501162475.3,286046998.0,N
1501162495.2,286046999.5,N
1501162515.0,286046996.6,N
1501162515.9,286046996.6,N
1501162535.7,286046995.1,N
1501162555.6,286046997.8,N
1501162575.4,286046996.5,N
1501162595.2,286046996.6,N
1501162615.1,286046994.9,N
1501162616.0,286046994.9,N
1501162635.8,286046996.9,N
1501162655.6,286046998.0,N
1501162675.5,286046997.7,N
1501162695.3,286046999.2,N
1501162715.1,286046997.3,N
1501162735.8,286046999.4,N
1501162755.7,286046995.2,N
1501162775.5,286046996.2,N
1501162795.3,286046995.0,N
1501162815.2,286046997.4,N
1501162835.9,286046997.6,N
1501162855.7,286046998.8,N
1501162875.6,286046995.3,N
1501162895.4,286046997.1,N
1501162915.2,286046997.0,N
1501162935.0,286046998.4,N
1501162936.0,286046998.4,N
1501162955.8,286046998.3,N
1501162975.6,286047000.6,N
1501162995.4,286047001.1,N
1501163015.3,286046998.2,N
1501163035.1,286047001.9,N
1501163055.8,286047003.9,N
1501163075.7,286047001.6,N
1501163095.5,286047003.9,N
1501163115.3,286047003.3,N
1501163135.2,286047004.1,N
1501163155.9,286047002.9,N
1501163175.7,286047003.7,N
1501163195.6,286047004.2,N
1501163215.4,286047003.3,N
1501163235.2,286047001.6,N
1501163255.0,286046999.8,N
1501163255.9,286046999.8,N
1501163275.8,286047002.3,N
1501163295.6,286047000.3,N
1501163315.4,286047002.0,N
1501163335.3,286046999.9,N
1501163355.1,286047000.3,N
1501163356.0,286047000.3,N
1501163375.8,286046998.2,N
1501163395.7,286047001.1,N
1501163415.5,286047000.5,N
1501163435.3,286047002.4,N
1501163455.2,286047001.5,N
1501163475.9,286047004.4,N
1501163495.7,286047002.5,N
1501163515.5,286047001.6,N
1501163535.4,286047004.4,N
1501163555.2,286047004.3,N
1501163575.0,286047004.4,N
1501163575.9,286047004.4,N
1501163595.8,286047001.5,N
1501163615.6,286047004.0,N
1501163635.4,286047002.9,N
1501163655.3,286047005.5,N
1501163675.1,286047002.9,N
1501163676.0,286047002.9,N
1501163695.8,286047002.5,N
1501163715.7,286046999.9,N
1501163735.5,286047001.5,N
1501163755.3,286047001.3,N
1501163775.2,286047004.0,N
1501163795.9,286047003.9,N
1501163815.7,286047003.0,N
1501163835.5,286047003.6,N
1501163855.4,286047003.1,N
1501163875.2,286047004.4,N
1501163895.0,286047005.6,N
1501163895.9,286047005.6,N
1501163915.8,286047001.5,N
1501163935.6,286047001.6,N
1501163955.4,286047001.6,N
1501163975.3,286047001.7,N
1501163995.1,286047004.0,N
1501163996.0,286047004.0,N
